DW3823 Weather Reports


time (UTC)temp
C
wind
direction
speed
KPH
gust
KPH
rain 1hr
cm
rain 24hr
cm
rain mn
cm
humidity
%
barometer
mb
20260509064536 11 157 0.0 3.2 0.00 0.00 0.00 77 1010.8
20260509064035 11 157 0.0 1.6 0.00 0.00 0.00 77 1011.1
20260509063536 11 157 0.0 3.2 0.00 0.00 0.00 77 1011.2
20260509063056 11 157 0.0 3.2 0.00 0.00 0.00 77 1011.1
20260509062534 11 157 0.0 1.6 0.00 0.00 0.00 77 1011.2
20260509062033 11 157 0.0 1.6 0.00 0.00 0.00 77 1011.2
20260509061557 11 157 0.0 4.8 0.00 0.00 0.00 76 1011.1
20260509061033 11 164 0.0 1.6 0.00 0.00 0.00 77 1011.2
20260509060535 11 165 0.0 1.6 0.00 0.00 0.00 76 1011.3
20260509060049 11 165 0.0 3.2 0.00 0.00 0.00 75 1011.3
20260509055531 11 165 0.0 3.2 0.00 0.00 0.00 76 1011.5
20260509055029 11 164 0.0 1.6 0.00 0.00 0.00 75 1011.7
20260509054528 11 164 0.0 1.6 0.00 0.00 0.00 74 1011.8
20260509054026 12 164 0.0 3.2 0.00 0.00 0.00 72 1011.9
20260509053525 12 164 0.0 8.0 0.00 0.00 0.00 70 1011.8
20260509053025 12 161 0.0 8.0 0.00 0.00 0.00 70 1011.9
20260509052523 13 144 0.0 8.0 0.00 0.00 0.00 70 1011.8
20260509052023 13 180 3.2 8.0 0.00 0.00 0.00 70 1011.7
20260509051523 13 193 0.0 4.8 0.00 0.00 0.00 69 1011.7
20260509051023 13 193 1.6 4.8 0.00 0.00 0.00 69 1011.7
20260509050522 13 181 0.0 3.2 0.00 0.00 0.00 69 1011.8
20260509050021 13 181 0.0 3.2 0.00 0.00 0.00 68 1011.8
20260509045520 13 181 0.0 6.4 0.00 0.00 0.00 68 1011.8
20260509045020 13 180 0.0 6.4 0.00 0.00 0.00 67 1011.7
20260509044523 13 190 0.0 8.0 0.00 0.00 0.00 67 1011.6
20260509044019 13 206 1.6 8.0 0.00 0.00 0.00 66 1011.7
20260509043517 13 173 1.6 6.4 0.00 0.00 0.00 66 1011.9
20260509043017 13 205 1.6 8.0 0.00 0.00 0.00 66 1011.9
20260509042519 13 205 1.6 4.8 0.00 0.00 0.00 66 1011.9
20260509042019 13 171 1.6 4.8 0.00 0.00 0.00 65 1012.1
20260509041517 13 175 0.0 6.4 0.00 0.00 0.00 64 1012.2
20260509041017 14 172 1.6 6.4 0.00 0.00 0.00 63 1012.3
20260509040518 14 184 1.6 6.4 0.00 0.00 0.00 62 1012.2
20260509040016 14 220 1.6 8.0 0.00 0.00 0.00 62 1012.3
20260509035516 14 178 3.2 8.0 0.00 0.00 0.00 62 1012.2
20260509035016 14 181 0.0 8.0 0.00 0.00 0.00 62 1012.3
20260509034515 14 266 3.2 8.0 0.00 0.00 0.00 62 1012.3
20260509034015 14 178 0.0 4.8 0.00 0.00 0.00 61 1012.3
20260509033519 14 188 0.0 6.4 0.00 0.00 0.00 61 1012.3
20260509033017 15 196 1.6 6.4 0.00 0.00 0.00 60 1012.3
20260509032516 14 186 0.0 3.2 0.00 0.00 0.00 61 1012.4
20260509032019 15 186 0.0 4.8 0.00 0.00 0.00 61 1012.5
20260509031514 15 186 0.0 4.8 0.00 0.00 0.00 61 1012.5
20260509031014 15 190 1.6 4.8 0.00 0.00 0.00 61 1012.5
20260509030515 14 176 0.0 6.4 0.00 0.00 0.00 61 1012.5
20260509030014 14 165 1.6 6.4 0.00 0.00 0.00 62 1012.4
20260509025513 15 161 1.6 4.8 0.00 0.00 0.00 62 1012.5
20260509025017 15 169 0.0 4.8 0.00 0.00 0.00 63 1012.4
20260509024516 14 167 1.6 3.2 0.00 0.00 0.00 63 1012.7
20260509024014 13 167 0.0 3.2 0.00 0.00 0.00 66 1012.6
20260509023513 14 167 0.0 3.2 0.00 0.00 0.00 66 1012.6
20260509023013 13 169 0.0 3.2 0.00 0.00 0.00 67 1012.6
20260509022512 13 169 0.0 0.0 0.00 0.00 0.00 67 1012.5
20260509022014 14 169 0.0 1.6 0.00 0.00 0.00 67 1012.5
20260509021513 14 169 0.0 1.6 0.00 0.00 0.00 66 1012.6
20260509021013 14 169 0.0 1.6 0.00 0.00 0.00 66 1012.5
20260509020512 14 169 0.0 3.2 0.00 0.00 0.00 64 1012.4
20260509020023 15 169 0.0 3.2 0.00 0.00 0.00 62 1012.4
20260509015513 15 169 0.0 3.2 0.00 0.00 0.00 62 1012.4
20260509015013 15 169 0.0 1.6 0.00 0.00 0.00 63 1012.4
20260509014532 13 169 0.0 1.6 0.00 0.00 0.00 66 1012.3
20260509014011 14 169 0.0 1.6 0.00 0.00 0.00 65 1012.3
20260509013511 14 169 0.0 1.6 0.00 0.00 0.00 63 1012.2
20260509013011 15 169 0.0 3.2 0.00 0.00 0.00 64 1012.1
20260509012511 15 169 0.0 4.8 0.00 0.00 0.00 63 1012.1
20260509012011 14 181 0.0 0.0 0.00 0.00 0.00 64 1012.2
20260509011511 14 181 0.0 0.0 0.00 0.00 0.00 63 1012.0
20260509011010 15 181 0.0 0.0 0.00 0.00 0.00 62 1012.1
20260509010516 14 181 0.0 0.0 0.00 0.00 0.00 63 1012.1
20260509010009 15 181 0.0 0.0 0.00 0.00 0.00 63 1012.1
20260509005510 15 181 0.0 0.0 0.00 0.00 0.00 62 1012.1
20260509005012 15 181 0.0 0.0 0.00 0.00 0.00 59 1012.0
20260509004515 15 181 0.0 0.0 0.00 0.00 0.00 57 1012.0
20260509004008 15 181 0.0 0.0 0.00 0.00 0.00 56 1012.1
20260509003512 16 181 0.0 0.0 0.00 0.00 0.00 54 1012.0
20260509003020 16 181 0.0 0.0 0.00 0.00 0.00 56 1011.9
20260509002507 16 181 0.0 0.0 0.00 0.00 0.00 54 1011.9
20260509002007 17 181 0.0 0.0 0.00 0.00 0.00 52 1011.9
20260509001507 17 181 0.0 3.2 0.00 0.00 0.00 47 1012.1
20260509001007 18 181 0.0 4.8 0.00 0.00 0.00 44 1012.4
20260509000506 18 181 0.0 4.8 0.00 0.00 0.00 43 1012.4
20260509000006 18 176 0.0 4.8 0.00 0.00 0.00 41 1012.5
20260508235508 19 218 0.0 3.2 0.00 0.00 0.00 40 1012.5
20260508235006 19 218 0.0 3.2 0.00 0.00 0.00 40 1012.4
20260508234505 19 218 0.0 6.4 0.00 0.00 0.00 39 1012.4
20260508234004 20 157 1.6 6.4 0.00 0.00 0.00 39 1012.3
20260508233507 20 236 0.0 6.4 0.00 0.00 0.00 38 1012.4
20260508233005 20 225 0.0 11.3 0.00 0.00 0.00 36 1012.4
20260508232505 20 145 1.6 4.8 0.00 0.00 0.00 37 1012.4
20260508232004 20 213 1.6 8.0 0.00 0.00 0.00 36 1012.4
20260508231504 21 183 1.6 8.0 0.00 0.00 0.00 38 1012.4
20260508231004 21 172 1.6 8.0 0.00 0.00 0.00 35 1012.3
20260508230504 21 290 3.2 8.0 0.00 0.00 0.00 37 1012.3
20260508230004 21 240 3.2 8.0 0.00 0.00 0.00 36 1012.4
20260508225503 21 257 1.6 6.4 0.00 0.00 0.00 35 1012.4
20260508225101 21 214 1.6 6.4 0.00 0.00 0.00 35 1012.4
20260508224602 21 284 0.0 6.4 0.00 0.00 0.00 38 1012.4
20260508224100 21 261 3.2 6.4 0.00 0.00 0.00 35 1012.6
20260508223602 21 250 0.0 9.7 0.00 0.00 0.00 37 1012.5
20260508223059 21 173 3.2 11.3 0.00 0.00 0.00 33 1012.6
20260508222558 21 148 3.2 11.3 0.00 0.00 0.00 32 1012.6
20260508222057 21 217 4.8 11.3 0.00 0.00 0.00 35 1012.7
20260508221600 21 219 1.6 12.9 0.00 0.00 0.00 35 1012.8
20260508221057 21 244 4.8 16.1 0.00 0.00 0.00 32 1012.9
20260508220556 22 166 3.2 16.1 0.00 0.00 0.00 32 1012.9
20260508220056 22 338 3.2 8.0 0.00 0.00 0.00 32 1012.9
20260508215557 22 132 3.2 9.7 0.00 0.00 0.00 33 1013.0
20260508215056 22 78 3.2 9.7 0.00 0.00 0.00 34 1013.1
20260508214558 22 294 1.6 9.7 0.00 0.00 0.00 34 1012.9
20260508214056 22 279 3.2 9.7 0.00 0.00 0.00 32 1012.8
20260508213555 22 290 4.8 9.7 0.00 0.00 0.00 34 1012.9
20260508213055 22 161 1.6 8.0 0.00 0.00 0.00 33 1012.7
20260508212555 22 186 1.6 17.7 0.00 0.00 0.00 37 1012.8
20260508212055 22 225 4.8 17.7 0.00 0.00 0.00 34 1012.8
20260508211554 22 211 3.2 8.0 0.00 0.00 0.00 37 1012.8
20260508211055 22 240 3.2 8.0 0.00 0.00 0.00 34 1012.9
20260508210556 22 290 1.6 8.0 0.00 0.00 0.00 38 1012.8
20260508210053 22 182 3.2 11.3 0.00 0.00 0.00 32 1013.0
20260508205559 22 206 4.8 12.9 0.00 0.00 0.00 34 1013.1
20260508205052 22 261 4.8 12.9 0.00 0.00 0.00 33 1012.9
20260508204552 22 195 6.4 12.9 0.00 0.00 0.00 33 1012.9
20260508204051 22 236 1.6 9.7 0.00 0.00 0.00 35 1013.0
20260508203550 22 227 1.6 8.0 0.00 0.00 0.00 36 1013.1
20260508203058 22 238 1.6 9.7 0.00 0.00 0.00 33 1013.1
20260508202549 22 215 3.2 9.7 0.00 0.00 0.00 34 1013.2
20260508202049 22 71 3.2 11.3 0.00 0.00 0.00 29 1013.3
20260508201558 22 226 3.2 12.9 0.00 0.00 0.00 35 1013.4
20260508201047 22 247 4.8 12.9 0.00 0.00 0.00 28 1013.5
20260508200547 22 241 4.8 9.7 0.00 0.00 0.00 32 1013.5
20260508200046 22 235 1.6 12.9 0.00 0.00 0.00 32 1013.6
20260508195545 22 187 3.2 12.9 0.00 0.00 0.00 36 1013.5
20260508195047 22 179 1.6 8.0 0.00 0.00 0.00 31 1013.6
20260508194544 22 182 4.8 8.0 0.00 0.00 0.00 32 1013.7
20260508194043 22 63 1.6 9.7 0.00 0.00 0.00 36 1013.7
20260508193542 21 229 1.6 9.7 0.00 0.00 0.00 34 1013.7
20260508193043 21 178 1.6 8.0 0.00 0.00 0.00 33 1013.9
20260508192542 21 172 3.2 9.7 0.00 0.00 0.00 34 1013.9
20260508192041 21 271 1.6 9.7 0.00 0.00 0.00 38 1013.9
20260508191541 21 171 3.2 8.0 0.00 0.00 0.00 31 1014.1
20260508191039 21 355 3.2 11.3 0.00 0.00 0.00 36 1014.2
20260508190538 21 264 3.2 11.3 0.00 0.00 0.00 32 1014.4
20260508190038 21 153 4.8 11.3 0.00 0.00 0.00 36 1014.7
20260508185538 21 289 1.6 11.3 0.00 0.00 0.00 36 1014.9
20260508185034 21 286 3.2 12.9 0.00 0.00 0.00 33 1014.9
20260508184534 21 283 3.2 12.9 0.00 0.00 0.00 35 1015.0
20260508184033 21 236 3.2 11.3 0.00 0.00 0.00 35 1014.9
20260508183532 21 280 4.8 11.3 0.00 0.00 0.00 37 1015.1
20260508183035 21 177 3.2 14.5 0.00 0.00 0.00 34 1015.1
20260508182531 21 178 1.6 11.3 0.00 0.00 0.00 37 1015.2
20260508182034 21 113 3.2 11.3 0.00 0.00 0.00 38 1015.3
20260508181535 21 234 1.6 8.0 0.00 0.00 0.00 37 1015.4
20260508181028 21 163 4.8 11.3 0.00 0.00 0.00 36 1015.7
20260508180528 20 323 1.6 11.3 0.00 0.00 0.00 35 1015.7
20260508180027 20 168 6.4 11.3 0.00 0.00 0.00 38 1015.8
20260508175529 20 315 1.6 11.3 0.00 0.00 0.00 34 1015.8
20260508175025 20 181 3.2 11.3 0.00 0.00 0.00 37 1015.8
20260508174529 20 173 3.2 11.3 0.00 0.00 0.00 40 1015.8
20260508174023 20 161 3.2 11.3 0.00 0.00 0.00 38 1015.6
20260508173523 20 236 3.2 9.7 0.00 0.00 0.00 39 1015.8
20260508173023 20 146 4.8 9.7 0.00 0.00 0.00 38 1016.0
20260508172520 19 40 3.2 9.7 0.00 0.00 0.00 38 1016.0
20260508172020 20 173 4.8 9.7 0.00 0.00 0.00 40 1016.2
20260508171525 20 153 3.2 11.3 0.00 0.00 0.00 43 1016.2
20260508171018 20 238 4.8 11.3 0.00 0.00 0.00 37 1016.2
20260508170520 19 277 3.2 11.3 0.00 0.00 0.00 40 1016.3
20260508170017 19 181 4.8 11.3 0.00 0.00 0.00 35 1016.4
20260508165515 19 176 4.8 11.3 0.00 0.00 0.00 38 1016.6
20260508165017 19 224 4.8 9.7 0.00 0.00 0.00 42 1016.8
20260508164513 19 267 1.6 12.9 0.00 0.00 0.00 40 1016.8
20260508164012 19 282 1.6 12.9 0.00 0.00 0.00 42 1016.9
20260508163513 18 248 4.8 14.5 0.00 0.00 0.00 43 1017.0
20260508163014 18 136 6.4 14.5 0.00 0.00 0.00 40 1017.2
20260508162509 18 281 3.2 9.7 0.00 0.00 0.00 46 1017.3
20260508162010 18 167 4.8 11.3 0.00 0.00 0.00 43 1017.3
20260508161507 18 202 6.4 11.3 0.00 0.00 0.00 42 1017.5
20260508161006 18 273 1.6 9.7 0.00 0.00 0.00 42 1017.6
20260508160504 18 183 1.6 9.7 0.00 0.00 0.00 43 1017.6
20260508160004 17 289 1.6 11.3 0.00 0.00 0.00 45 1017.6
20260508155502 17 162 1.6 11.3 0.00 0.00 0.00 45 1017.6
20260508155002 17 69 3.2 9.7 0.00 0.00 0.00 41 1017.7
20260508154605 17 206 3.2 6.4 0.00 0.00 0.00 49 1017.8
20260508154058 17 229 1.6 11.3 0.00 0.00 0.00 43 1017.8
20260508153557 17 215 3.2 11.3 0.00 0.00 0.00 43 1017.9
20260508153057 17 153 1.6 8.0 0.00 0.00 0.00 43 1018.1
20260508152554 17 176 0.0 9.7 0.00 0.00 0.00 42 1018.4
20260508152053 17 229 4.8 9.7 0.00 0.00 0.00 44 1018.4
20260508151554 17 86 3.2 9.7 0.00 0.00 0.00 46 1018.4
20260508151051 17 212 3.2 9.7 0.00 0.00 0.00 46 1018.4
20260508150550 17 198 1.6 11.3 0.00 0.00 0.00 48 1018.6
20260508150048 16 254 6.4 11.3 0.00 0.00 0.00 45 1018.6
20260508145547 16 254 3.2 11.3 0.00 0.00 0.00 46 1018.5
20260508145046 16 260 4.8 11.3 0.00 0.00 0.00 46 1018.4
20260508144546 16 182 3.2 11.3 0.00 0.00 0.00 46 1018.5
20260508144042 16 242 4.8 11.3 0.00 0.00 0.00 49 1018.5
20260508143541 16 107 0.0 9.7 0.00 0.00 0.00 47 1018.4
20260508143038 15 107 1.6 9.7 0.00 0.00 0.00 47 1018.6
20260508142537 15 174 1.6 9.7 0.00 0.00 0.00 51 1018.7
20260508142036 15 199 3.2 14.5 0.00 0.00 0.00 49 1018.6
20260508141604 15 170 3.2 14.5 0.00 0.00 0.00 56 1018.6
20260508141034 15 248 3.2 8.0 0.00 0.00 0.00 55 1018.6
20260508140532 15 202 3.2 8.0 0.00 0.00 0.00 54 1018.6
20260508140032 15 184 1.6 4.8 0.00 0.00 0.00 58 1018.6
20260508135529 15 173 0.0 6.4 0.00 0.00 0.00 58 1018.6
20260508135028 14 173 1.6 9.7 0.00 0.00 0.00 61 1018.6
20260508134533 13 274 1.6 6.4 0.00 0.00 0.00 60 1018.7
20260508134024 13 157 0.0 6.4 0.00 0.00 0.00 61 1018.7
20260508133526 13 196 1.6 4.8 0.00 0.00 0.00 58 1018.6
20260508133022 13 208 0.0 4.8 0.00 0.00 0.00 64 1018.8
20260508132521 12 208 0.0 6.4 0.00 0.00 0.00 64 1018.7
20260508132022 12 213 1.6 6.4 0.00 0.00 0.00 64 1018.7
20260508131517 12 219 0.0 6.4 0.00 0.00 0.00 66 1018.7
20260508131016 11 239 1.6 6.4 0.00 0.00 0.00 67 1018.6
20260508130514 11 190 1.6 6.4 0.00 0.00 0.00 67 1018.6
20260508130013 11 174 1.6 6.4 0.00 0.00 0.00 66 1018.6
20260508125511 11 179 0.0 4.8 0.00 0.00 0.00 69 1018.5
20260508125014 10 179 1.6 4.8 0.00 0.00 0.00 72 1018.3
20260508124508 10 176 0.0 4.8 0.00 0.00 0.00 75 1018.3
20260508124007 9 176 1.6 4.8 0.00 0.00 0.00 75 1018.4
20260508123505 9 176 0.0 3.2 0.00 0.00 0.00 80 1018.4
20260508123004 8 176 1.6 4.8 0.00 0.00 0.00 86 1018.3
20260508122503 7 176 0.0 4.8 0.00 0.00 0.00 91 1018.3
20260508122001 7 175 0.0 3.2 0.00 0.00 0.00 94 1018.3
20260508121602 6 175 0.0 3.2 0.00 0.00 0.00 94 1018.2
20260508121058 6 5 0.0 0.0 0.00 0.00 0.00 95 1018.3
20260508120557 5 5 0.0 0.0 0.00 0.00 0.00 95 1018.1
20260508120058 5 5 0.0 0.0 0.00 0.00 0.00 95 1018.1
20260508115557 5 5 0.0 0.0 0.00 0.00 0.00 95 1018.1
20260508115056 4 5 0.0 0.0 0.00 0.00 0.00 95 1018.0
20260508114555 4 5 0.0 0.0 0.00 0.00 0.00 95 1017.9
20260508114054 3 5 0.0 0.0 0.00 0.00 0.00 95 1017.9
20260508113554 3 5 0.0 0.0 0.00 0.00 0.00 95 1017.7
20260508113105 3 5 0.0 0.0 0.00 0.00 0.00 95 1017.7
20260508112552 3 5 0.0 0.0 0.00 0.00 0.00 94 1017.6
20260508112051 3 5 0.0 0.0 0.00 0.00 0.00 94 1017.6
20260508111557 3 5 0.0 0.0 0.00 0.00 0.00 94 1017.5
20260508111054 3 5 0.0 0.0 0.00 0.00 0.00 94 1017.5
20260508110550 3 5 0.0 0.0 0.00 0.00 0.00 94 1017.4
20260508110054 3 5 0.0 0.0 0.00 0.00 0.00 94 1017.4
20260508105548 3 5 0.0 0.0 0.00 0.00 0.00 94 1017.3
20260508105047 3 5 0.0 0.0 0.00 0.00 0.00 94 1017.3
20260508104546 3 5 0.0 0.0 0.00 0.00 0.00 94 1017.3
20260508104045 3 5 0.0 0.0 0.00 0.00 0.00 94 1017.3
20260508103546 3 5 0.0 0.0 0.00 0.00 0.00 94 1017.3
20260508103045 3 5 0.0 0.0 0.00 0.00 0.00 95 1017.2
20260508102544 3 5 0.0 0.0 0.00 0.00 0.00 94 1017.1
20260508102044 3 5 0.0 0.0 0.00 0.00 0.00 94 1017.1
20260508101543 3 5 0.0 1.6 0.00 0.00 0.00 94 1017.0
20260508101043 3 5 0.0 1.6 0.00 0.00 0.00 94 1016.9
20260508100542 3 5 0.0 1.6 0.00 0.00 0.00 94 1016.9
20260508100042 3 5 0.0 0.0 0.00 0.00 0.00 94 1016.9
20260508095542 3 5 0.0 0.0 0.00 0.00 0.00 94 1016.9
20260508095042 3 5 0.0 0.0 0.00 0.00 0.00 94 1016.7
20260508094541 3 5 0.0 0.0 0.00 0.00 0.00 94 1016.7
20260508094040 3 5 0.0 0.0 0.00 0.00 0.00 94 1016.8
20260508093540 3 5 0.0 0.0 0.00 0.00 0.00 94 1016.6
20260508093046 3 5 0.0 0.0 0.00 0.00 0.00 94 1016.7
20260508092538 3 5 0.0 0.0 0.00 0.00 0.00 94 1016.6
20260508092038 3 5 0.0 0.0 0.00 0.00 0.00 94 1016.5
20260508091548 3 5 0.0 0.0 0.00 0.00 0.00 94 1016.5
20260508091040 3 5 0.0 0.0 0.00 0.00 0.00 94 1016.6
20260508090536 3 5 0.0 0.0 0.00 0.00 0.00 94 1016.6
20260508090040 3 5 0.0 0.0 0.00 0.00 0.00 94 1016.6
20260508085537 3 5 0.0 0.0 0.00 0.00 0.00 93 1016.5
20260508085035 4 5 0.0 0.0 0.00 0.00 0.00 93 1016.4
20260508084534 3 5 0.0 0.0 0.00 0.00 0.00 93 1016.4
20260508084034 4 5 0.0 0.0 0.00 0.00 0.00 93 1016.4
20260508083532 4 5 0.0 0.0 0.00 0.00 0.00 93 1016.6
20260508083032 4 5 0.0 0.0 0.00 0.00 0.00 93 1016.6
20260508082531 4 5 0.0 0.0 0.00 0.00 0.00 93 1016.5
20260508082031 4 5 0.0 0.0 0.00 0.00 0.00 93 1016.6
20260508081532 4 5 0.0 0.0 0.00 0.00 0.00 93 1016.6
20260508081031 5 5 0.0 0.0 0.00 0.00 0.00 93 1016.6
20260508080533 4 5 0.0 0.0 0.00 0.00 0.00 93 1016.6
20260508080037 5 5 0.0 0.0 0.00 0.00 0.00 93 1016.7
20260508075529 5 5 0.0 0.0 0.00 0.03 0.00 93 1016.6
20260508075029 5 5 0.0 0.0 0.00 0.03 0.00 93 1016.6
20260508074531 5 5 0.0 0.0 0.00 0.03 0.00 93 1016.4
20260508074027 5 5 0.0 0.0 0.00 0.03 0.00 93 1016.4
20260508073529 5 5 0.0 0.0 0.00 0.03 0.00 93 1016.5
20260508073026 5 5 0.0 0.0 0.00 0.03 0.00 92 1016.5
20260508072526 5 5 0.0 0.0 0.00 0.03 0.00 92 1016.5
20260508072025 5 5 0.0 0.0 0.00 0.03 0.00 92 1016.4
20260508071530 5 5 0.0 0.0 0.00 0.03 0.00 92 1016.5
20260508071024 5 5 0.0 0.0 0.00 0.03 0.00 92 1016.5
20260508070524 5 5 0.0 0.0 0.00 0.03 0.00 92 1016.5
20260508070023 5 5 0.0 0.0 0.00 0.03 0.00 92 1016.6
20260508065523 5 5 0.0 0.0 0.00 0.03 0.00 92 1016.6
20260508065022 5 5 0.0 0.0 0.00 0.03 0.00 92 1016.6